Year,Month,Day,Hour,Minute,Value (Times are PST for temperature in C)
2010,08,16,00,00,23.80
2010,08,16,00,01,23.80
2010,08,16,00,02,23.80
2010,08,16,00,03,23.70
2010,08,16,00,04,23.70
2010,08,16,00,05,23.70
2010,08,16,00,06,23.70
2010,08,16,00,07,23.60
2010,08,16,00,08,23.60
2010,08,16,00,09,23.60
2010,08,16,00,10,23.60
2010,08,16,00,11,23.60
2010,08,16,00,12,23.50
2010,08,16,00,13,23.50
2010,08,16,00,14,23.40
2010,08,16,00,15,23.40
2010,08,16,00,16,23.40
2010,08,16,00,17,23.30
2010,08,16,00,18,23.30
2010,08,16,00,19,23.30
2010,08,16,00,20,23.30
2010,08,16,00,21,23.30
2010,08,16,00,22,23.20
2010,08,16,00,23,23.20
2010,08,16,00,24,23.20
2010,08,16,00,25,23.20
2010,08,16,00,26,23.10
2010,08,16,00,27,23.10
2010,08,16,00,28,23.10
2010,08,16,00,29,23.00
2010,08,16,00,30,23.00
2010,08,16,00,31,23.00
2010,08,16,00,32,23.00
2010,08,16,00,33,22.90
2010,08,16,00,34,22.90
2010,08,16,00,35,22.90
2010,08,16,00,36,22.90
2010,08,16,00,37,22.90
2010,08,16,00,38,22.90
2010,08,16,00,39,22.90
2010,08,16,00,40,22.90
2010,08,16,00,41,22.90
2010,08,16,00,42,22.90
2010,08,16,00,43,22.90
2010,08,16,00,44,22.90
2010,08,16,00,45,22.90
2010,08,16,00,46,22.80
2010,08,16,00,47,22.80
2010,08,16,00,48,22.80
2010,08,16,00,49,22.80
2010,08,16,00,50,22.80
2010,08,16,00,51,22.70
2010,08,16,00,52,22.70
2010,08,16,00,53,22.70
2010,08,16,00,54,22.70
2010,08,16,00,55,22.70
2010,08,16,00,56,22.80
2010,08,16,00,57,22.80
2010,08,16,00,58,22.80
2010,08,16,00,59,22.90
2010,08,16,01,00,23.00
2010,08,16,01,01,23.00
2010,08,16,01,02,23.10
2010,08,16,01,03,23.20
2010,08,16,01,04,23.30
2010,08,16,01,05,23.40
2010,08,16,01,06,23.50
2010,08,16,01,07,23.60
2010,08,16,01,08,23.70
2010,08,16,01,09,23.80
2010,08,16,01,10,23.80
2010,08,16,01,11,23.80
2010,08,16,01,12,23.70
2010,08,16,01,13,23.70
2010,08,16,01,14,23.60
2010,08,16,01,15,23.60
2010,08,16,01,16,23.50
2010,08,16,01,17,23.40
2010,08,16,01,18,23.30
2010,08,16,01,19,23.30
2010,08,16,01,20,23.20
2010,08,16,01,21,23.10
2010,08,16,01,22,23.00
2010,08,16,01,23,23.00
2010,08,16,01,24,22.90
2010,08,16,01,25,22.80
2010,08,16,01,26,22.70
2010,08,16,01,27,22.70
2010,08,16,01,28,22.60
2010,08,16,01,29,22.60
2010,08,16,01,30,22.50
2010,08,16,01,31,22.40
2010,08,16,01,32,22.40
2010,08,16,01,33,22.30
2010,08,16,01,34,22.30
2010,08,16,01,35,22.30
2010,08,16,01,36,22.20
2010,08,16,01,37,22.20
2010,08,16,01,38,22.10
2010,08,16,01,39,22.10
2010,08,16,01,40,22.00
2010,08,16,01,41,21.90
2010,08,16,01,42,21.90
2010,08,16,01,43,21.80
2010,08,16,01,44,21.80
2010,08,16,01,45,21.80
2010,08,16,01,46,21.70
2010,08,16,01,47,21.70
2010,08,16,01,48,21.60
2010,08,16,01,49,21.60
2010,08,16,01,50,21.60
2010,08,16,01,51,21.50
2010,08,16,01,52,21.50
2010,08,16,01,53,21.40
2010,08,16,01,54,21.40
2010,08,16,01,55,21.40
2010,08,16,01,56,21.30
2010,08,16,01,57,21.30
2010,08,16,01,58,21.30
2010,08,16,01,59,21.20
2010,08,16,02,00,21.20
2010,08,16,02,01,21.20
2010,08,16,02,02,21.20
2010,08,16,02,03,21.20
2010,08,16,02,04,21.10
2010,08,16,02,05,21.10
2010,08,16,02,06,21.10
2010,08,16,02,07,21.10
2010,08,16,02,08,21.10
2010,08,16,02,09,21.10
2010,08,16,02,10,21.20
2010,08,16,02,11,21.20
2010,08,16,02,12,21.20
2010,08,16,02,13,21.30
2010,08,16,02,14,21.50
2010,08,16,02,15,21.60
2010,08,16,02,16,21.70
2010,08,16,02,17,21.80
2010,08,16,02,18,21.90
2010,08,16,02,19,22.00
2010,08,16,02,20,22.10
2010,08,16,02,21,22.20
2010,08,16,02,22,22.40
2010,08,16,02,23,22.60
2010,08,16,02,24,22.70
2010,08,16,02,25,22.80
2010,08,16,02,26,23.00
2010,08,16,02,27,23.10
2010,08,16,02,28,23.20
2010,08,16,02,29,23.40
2010,08,16,02,30,23.60
2010,08,16,02,31,23.70
2010,08,16,02,32,23.80
2010,08,16,02,33,24.00
2010,08,16,02,34,24.20
2010,08,16,02,35,24.20
2010,08,16,02,36,24.40
2010,08,16,02,37,24.50
2010,08,16,02,38,24.60
2010,08,16,02,39,24.60
2010,08,16,02,40,24.70
2010,08,16,02,41,24.80
2010,08,16,02,42,24.90
2010,08,16,02,43,25.00
2010,08,16,02,44,25.10
2010,08,16,02,45,25.10
2010,08,16,02,46,25.20
2010,08,16,02,47,25.30
2010,08,16,02,48,25.30
2010,08,16,02,49,25.40
2010,08,16,02,50,25.50
2010,08,16,02,51,25.60
2010,08,16,02,52,25.60
2010,08,16,02,53,25.70
2010,08,16,02,54,25.70
2010,08,16,02,55,25.70
2010,08,16,02,56,25.80
2010,08,16,02,57,25.80
2010,08,16,02,58,25.90
2010,08,16,02,59,25.90
2010,08,16,03,00,26.00
2010,08,16,03,01,26.10
2010,08,16,03,02,26.10
2010,08,16,03,03,26.20
2010,08,16,03,04,26.20
2010,08,16,03,05,26.20
2010,08,16,03,06,26.20
2010,08,16,03,07,26.20
2010,08,16,03,08,26.30
2010,08,16,03,09,26.30
2010,08,16,03,10,26.30
2010,08,16,03,11,26.30
2010,08,16,03,12,26.30
2010,08,16,03,13,26.30
2010,08,16,03,14,26.30
2010,08,16,03,15,26.30
2010,08,16,03,16,26.30
2010,08,16,03,17,26.30
2010,08,16,03,18,26.30
2010,08,16,03,19,26.30
2010,08,16,03,20,26.30
2010,08,16,03,21,26.30
2010,08,16,03,22,26.30
2010,08,16,03,23,26.30
2010,08,16,03,24,26.30
2010,08,16,03,25,26.30
2010,08,16,03,26,26.30
2010,08,16,03,27,26.30
2010,08,16,03,28,26.30
2010,08,16,03,29,26.30
2010,08,16,03,30,26.30
2010,08,16,03,31,26.30
2010,08,16,03,32,26.20
2010,08,16,03,33,26.20
2010,08,16,03,34,26.20
2010,08,16,03,35,26.20
2010,08,16,03,36,26.20
2010,08,16,03,37,26.20
2010,08,16,03,38,26.20
2010,08,16,03,39,26.20
2010,08,16,03,40,26.20
2010,08,16,03,41,26.20
2010,08,16,03,42,26.20
2010,08,16,03,43,26.10
2010,08,16,03,44,26.10
2010,08,16,03,45,26.10
2010,08,16,03,46,26.10
2010,08,16,03,47,26.10
2010,08,16,03,48,26.10
2010,08,16,03,49,26.10
2010,08,16,03,50,26.10
2010,08,16,03,51,26.10
2010,08,16,03,52,26.10
2010,08,16,03,53,26.00
2010,08,16,03,54,26.00
2010,08,16,03,55,26.00
2010,08,16,03,56,25.90
2010,08,16,03,57,25.90
2010,08,16,03,58,25.90
2010,08,16,03,59,25.90
2010,08,16,04,00,25.90
2010,08,16,04,01,25.90
2010,08,16,04,02,25.90
2010,08,16,04,03,25.90
2010,08,16,04,04,25.90
2010,08,16,04,05,25.90
2010,08,16,04,06,25.90
2010,08,16,04,07,25.80
2010,08,16,04,08,25.80
2010,08,16,04,09,25.80
2010,08,16,04,10,25.80
2010,08,16,04,11,25.80
2010,08,16,04,12,25.80
2010,08,16,04,13,25.80
2010,08,16,04,14,25.90
2010,08,16,04,15,25.90
2010,08,16,04,16,25.90
2010,08,16,04,17,25.90
2010,08,16,04,18,25.90
2010,08,16,04,19,25.90
2010,08,16,04,20,25.80
2010,08,16,04,21,25.80
2010,08,16,04,22,25.80
2010,08,16,04,23,25.80
2010,08,16,04,24,25.80
2010,08,16,04,25,25.70
2010,08,16,04,26,25.70
2010,08,16,04,27,25.70
2010,08,16,04,28,25.70
2010,08,16,04,29,25.70
2010,08,16,04,30,25.70
2010,08,16,04,31,25.60
2010,08,16,04,32,25.60
2010,08,16,04,33,25.50
2010,08,16,04,34,25.40
2010,08,16,04,35,25.30
2010,08,16,04,36,25.20
2010,08,16,04,37,25.10
2010,08,16,04,38,25.00
2010,08,16,04,39,24.90
2010,08,16,04,40,24.80
2010,08,16,04,41,24.70
2010,08,16,04,42,24.60
2010,08,16,04,43,24.50
2010,08,16,04,44,24.40
2010,08,16,04,45,24.20
2010,08,16,04,46,24.10
2010,08,16,04,47,24.00
2010,08,16,04,48,23.80
2010,08,16,04,49,23.70
2010,08,16,04,50,23.60
2010,08,16,04,51,23.50
2010,08,16,04,52,23.40
2010,08,16,04,53,23.30
2010,08,16,04,54,23.20
2010,08,16,04,55,23.10
2010,08,16,04,56,22.90
2010,08,16,04,57,22.80
2010,08,16,04,58,22.80
2010,08,16,04,59,22.70
2010,08,16,05,00,22.60
2010,08,16,05,01,22.60
2010,08,16,05,02,22.50
2010,08,16,05,03,22.50
2010,08,16,05,04,22.40
2010,08,16,05,05,22.40
2010,08,16,05,06,22.30
2010,08,16,05,07,22.30
2010,08,16,05,08,22.30
2010,08,16,05,09,22.20
2010,08,16,05,10,22.20
2010,08,16,05,11,22.20
2010,08,16,05,12,22.10
2010,08,16,05,13,22.10
2010,08,16,05,14,22.10
2010,08,16,05,15,22.10
2010,08,16,05,16,22.10
2010,08,16,05,17,22.00
2010,08,16,05,18,22.00
2010,08,16,05,19,22.00
2010,08,16,05,20,22.00
2010,08,16,05,21,22.00
2010,08,16,05,22,22.00
2010,08,16,05,23,22.00
2010,08,16,05,24,22.00
2010,08,16,05,25,22.00
2010,08,16,05,26,22.00
2010,08,16,05,27,21.90
2010,08,16,05,28,21.90
2010,08,16,05,29,21.90
2010,08,16,05,30,21.90
2010,08,16,05,31,21.90
2010,08,16,05,32,21.80
2010,08,16,05,33,21.80
2010,08,16,05,34,21.80
2010,08,16,05,35,21.70
2010,08,16,05,36,21.70
2010,08,16,05,37,21.70
2010,08,16,05,38,21.60
2010,08,16,05,39,21.60
2010,08,16,05,40,21.60
2010,08,16,05,41,21.50
2010,08,16,05,42,21.50
2010,08,16,05,43,21.40
2010,08,16,05,44,21.40
2010,08,16,05,45,21.40
2010,08,16,05,46,21.40
2010,08,16,05,47,21.30
2010,08,16,05,48,21.30
2010,08,16,05,49,21.20
2010,08,16,05,50,21.20
2010,08,16,05,51,21.20
2010,08,16,05,52,21.10
2010,08,16,05,53,21.10
2010,08,16,05,54,21.10
2010,08,16,05,55,21.10
2010,08,16,05,56,21.10
2010,08,16,05,57,21.10
2010,08,16,05,58,21.10
2010,08,16,05,59,21.00
2010,08,16,06,00,21.00
2010,08,16,06,01,21.00
2010,08,16,06,02,21.00
2010,08,16,06,03,21.00
2010,08,16,06,04,21.00
2010,08,16,06,05,20.90
2010,08,16,06,06,20.90
2010,08,16,06,07,20.90
2010,08,16,06,08,20.90
2010,08,16,06,09,20.90
2010,08,16,06,10,20.90
2010,08,16,06,11,20.80
2010,08,16,06,12,20.80
2010,08,16,06,13,20.80
2010,08,16,06,14,20.80
2010,08,16,06,15,20.70
2010,08,16,06,16,20.70
2010,08,16,06,17,20.70
2010,08,16,06,18,20.70
2010,08,16,06,19,20.70
2010,08,16,06,20,20.60
2010,08,16,06,21,20.60
2010,08,16,06,22,20.60
2010,08,16,06,23,20.60
2010,08,16,06,24,20.60
2010,08,16,06,25,20.60
2010,08,16,06,26,20.60
2010,08,16,06,27,20.60
2010,08,16,06,28,20.60
2010,08,16,06,29,20.60
2010,08,16,06,30,20.60
2010,08,16,06,31,20.60
2010,08,16,06,32,20.60
2010,08,16,06,33,20.60
2010,08,16,06,34,20.60
2010,08,16,06,35,20.60
2010,08,16,06,36,20.50
2010,08,16,06,37,20.50
2010,08,16,06,38,20.50
2010,08,16,06,39,20.50
2010,08,16,06,40,20.50
2010,08,16,06,41,20.50
2010,08,16,06,42,20.60
2010,08,16,06,43,20.60
2010,08,16,06,44,20.60
2010,08,16,06,45,20.60
2010,08,16,06,46,20.60
2010,08,16,06,47,20.60
2010,08,16,06,48,20.60
2010,08,16,06,49,20.60
2010,08,16,06,50,20.60
2010,08,16,06,51,20.70
2010,08,16,06,52,20.70
2010,08,16,06,53,20.70
2010,08,16,06,54,20.70
2010,08,16,06,55,20.70
2010,08,16,06,56,20.70
2010,08,16,06,57,20.70
2010,08,16,06,58,20.70
2010,08,16,06,59,20.70
2010,08,16,07,00,20.70
2010,08,16,07,01,20.70
2010,08,16,07,02,20.70
2010,08,16,07,03,20.80
2010,08,16,07,04,20.80
2010,08,16,07,05,20.80
2010,08,16,07,06,20.80
2010,08,16,07,07,20.80
2010,08,16,07,08,20.90
2010,08,16,07,09,20.90
2010,08,16,07,10,20.90
2010,08,16,07,11,20.90
2010,08,16,07,12,20.90
2010,08,16,07,13,20.90
2010,08,16,07,14,21.00
2010,08,16,07,15,21.00
2010,08,16,07,16,21.00
2010,08,16,07,17,21.10
2010,08,16,07,18,21.10
2010,08,16,07,19,21.10
2010,08,16,07,20,21.10
2010,08,16,07,21,21.20
2010,08,16,07,22,21.20
2010,08,16,07,23,21.20
2010,08,16,07,24,21.20
2010,08,16,07,25,21.20
2010,08,16,07,26,21.30
2010,08,16,07,27,21.30
2010,08,16,07,28,21.30
2010,08,16,07,29,21.40
2010,08,16,07,30,21.40
2010,08,16,07,31,21.40
2010,08,16,07,32,21.40
2010,08,16,07,33,21.50
2010,08,16,07,34,21.50
2010,08,16,07,35,21.50
2010,08,16,07,36,21.60
2010,08,16,07,37,21.60
2010,08,16,07,38,21.60
2010,08,16,07,39,21.60
2010,08,16,07,40,21.60
2010,08,16,07,41,21.70
2010,08,16,07,42,21.70
2010,08,16,07,43,21.80
2010,08,16,07,44,21.80
2010,08,16,07,45,21.80
2010,08,16,07,46,21.90
2010,08,16,07,47,21.90
2010,08,16,07,48,22.00
2010,08,16,07,49,22.00
2010,08,16,07,50,22.10
2010,08,16,07,51,22.10
2010,08,16,07,52,22.20
2010,08,16,07,53,22.20
2010,08,16,07,54,22.30
2010,08,16,07,55,22.30
2010,08,16,07,56,22.40
2010,08,16,07,57,22.40
2010,08,16,07,58,22.50
2010,08,16,07,59,22.50
2010,08,16,08,00,22.60
2010,08,16,08,01,22.60
2010,08,16,08,02,22.70
2010,08,16,08,03,22.80
2010,08,16,08,04,22.80
2010,08,16,08,05,22.80
2010,08,16,08,06,22.90
2010,08,16,08,07,22.90
2010,08,16,08,08,23.00
2010,08,16,08,09,23.10
2010,08,16,08,10,23.10
2010,08,16,08,11,23.20
2010,08,16,08,12,23.20
2010,08,16,08,13,23.30
2010,08,16,08,14,23.30
2010,08,16,08,15,23.40
2010,08,16,08,16,23.40
2010,08,16,08,17,23.50
2010,08,16,08,18,23.50
2010,08,16,08,19,23.60
2010,08,16,08,20,23.60
2010,08,16,08,21,23.70
2010,08,16,08,22,23.70
2010,08,16,08,23,23.70
2010,08,16,08,24,23.80
2010,08,16,08,25,23.80
2010,08,16,08,26,23.90
2010,08,16,08,27,24.00
2010,08,16,08,28,24.10
2010,08,16,08,29,24.10
2010,08,16,08,30,24.20
2010,08,16,08,31,24.30
2010,08,16,08,32,24.30
2010,08,16,08,33,24.40
2010,08,16,08,34,24.40
2010,08,16,08,35,24.50
2010,08,16,08,36,24.50
2010,08,16,08,37,24.60
2010,08,16,08,38,24.60
2010,08,16,08,39,24.60
2010,08,16,08,40,24.70
2010,08,16,08,41,24.70
2010,08,16,08,42,24.70
2010,08,16,08,43,24.80
2010,08,16,08,44,24.80
2010,08,16,08,45,24.80
2010,08,16,08,46,24.90
2010,08,16,08,47,24.90
2010,08,16,08,48,24.90
2010,08,16,08,49,25.00
2010,08,16,08,50,25.00
2010,08,16,08,51,25.10
2010,08,16,08,52,25.10
2010,08,16,08,53,25.20
2010,08,16,08,54,25.20
2010,08,16,08,55,25.20
2010,08,16,08,56,25.20
2010,08,16,08,57,25.20
2010,08,16,08,58,25.20
2010,08,16,08,59,25.10
2010,08,16,09,00,25.10
2010,08,16,09,01,25.00
2010,08,16,09,02,25.00
2010,08,16,09,03,25.00
2010,08,16,09,04,25.00
2010,08,16,09,05,25.00
2010,08,16,09,06,24.90
2010,08,16,09,07,24.90
2010,08,16,09,08,24.80
2010,08,16,09,09,24.70
2010,08,16,09,10,24.60
2010,08,16,09,11,24.50
2010,08,16,09,12,24.50
2010,08,16,09,13,24.50
2010,08,16,09,14,24.40
2010,08,16,09,15,24.40
2010,08,16,09,16,24.50
2010,08,16,09,17,24.50
2010,08,16,09,18,24.60
2010,08,16,09,19,24.60
2010,08,16,09,20,24.70
2010,08,16,09,21,24.70
2010,08,16,09,22,24.70
2010,08,16,09,23,24.80
2010,08,16,09,24,24.80
2010,08,16,09,25,24.80
2010,08,16,09,26,24.80
2010,08,16,09,27,24.90
2010,08,16,09,28,24.90
2010,08,16,09,29,25.00
2010,08,16,09,30,25.10
2010,08,16,09,31,25.10
2010,08,16,09,32,25.10
2010,08,16,09,33,25.20
2010,08,16,09,34,25.20
2010,08,16,09,35,25.30
2010,08,16,09,36,25.30
2010,08,16,09,37,25.30
2010,08,16,09,38,25.40
2010,08,16,09,39,25.40
2010,08,16,09,40,25.50
2010,08,16,09,41,25.60
2010,08,16,09,42,25.60
2010,08,16,09,43,25.70
2010,08,16,09,44,25.70
2010,08,16,09,45,25.70
2010,08,16,09,46,25.80
2010,08,16,09,47,25.80
2010,08,16,09,48,25.80
2010,08,16,09,49,25.90
2010,08,16,09,50,25.90
2010,08,16,09,51,25.90
2010,08,16,09,52,25.90
2010,08,16,09,53,25.90
2010,08,16,09,54,25.90
2010,08,16,09,55,25.90
2010,08,16,09,56,25.80
2010,08,16,09,57,25.80
2010,08,16,09,58,25.80
2010,08,16,09,59,25.80
2010,08,16,10,00,25.80
2010,08,16,10,01,25.80
2010,08,16,10,02,25.90
2010,08,16,10,03,25.90
2010,08,16,10,04,25.90
2010,08,16,10,05,26.00
2010,08,16,10,06,26.00
2010,08,16,10,07,26.00
2010,08,16,10,08,26.00
2010,08,16,10,09,26.00
2010,08,16,10,10,26.00
2010,08,16,10,11,26.00
2010,08,16,10,12,26.00
2010,08,16,10,13,26.00
2010,08,16,10,14,26.00
2010,08,16,10,15,26.00
2010,08,16,10,16,26.10
2010,08,16,10,17,26.10
2010,08,16,10,18,26.10
2010,08,16,10,19,26.10
2010,08,16,10,20,26.10
2010,08,16,10,21,26.10
2010,08,16,10,22,26.10
2010,08,16,10,23,26.10
2010,08,16,10,24,26.10
2010,08,16,10,25,26.10
2010,08,16,10,26,26.10
2010,08,16,10,27,26.10
2010,08,16,10,28,26.10
2010,08,16,10,29,26.10
2010,08,16,10,30,26.10
2010,08,16,10,31,26.10
2010,08,16,10,32,26.20
2010,08,16,10,33,26.20
2010,08,16,10,34,26.30
2010,08,16,10,35,26.30
2010,08,16,10,36,26.40
2010,08,16,10,37,26.40
2010,08,16,10,38,26.50
2010,08,16,10,39,26.60
2010,08,16,10,40,26.60
2010,08,16,10,41,26.60
2010,08,16,10,42,26.60
2010,08,16,10,43,26.60
2010,08,16,10,44,26.60
2010,08,16,10,45,26.50
2010,08,16,10,46,26.50
2010,08,16,10,47,26.50
2010,08,16,10,48,26.50
2010,08,16,10,49,26.40
2010,08,16,10,50,26.50
2010,08,16,10,51,26.40
2010,08,16,10,52,26.40
2010,08,16,10,53,26.40
2010,08,16,10,54,26.40
2010,08,16,10,55,26.40
2010,08,16,10,56,26.40
2010,08,16,10,57,26.40
2010,08,16,10,58,26.30
2010,08,16,10,59,26.30
2010,08,16,11,00,26.40
2010,08,16,11,01,26.40
2010,08,16,11,02,26.40
2010,08,16,11,03,26.40
2010,08,16,11,04,26.40
2010,08,16,11,05,26.40
2010,08,16,11,06,26.50
2010,08,16,11,07,26.50
2010,08,16,11,08,26.50
2010,08,16,11,09,26.50
2010,08,16,11,10,26.40
2010,08,16,11,11,26.40
2010,08,16,11,12,26.40
2010,08,16,11,13,26.40
2010,08,16,11,14,26.40
2010,08,16,11,15,26.40
2010,08,16,11,16,26.50
2010,08,16,11,17,26.60
2010,08,16,11,18,26.60
2010,08,16,11,19,26.70
2010,08,16,11,20,26.70
2010,08,16,11,21,26.70
2010,08,16,11,22,26.70
2010,08,16,11,23,26.80
2010,08,16,11,24,26.80
2010,08,16,11,25,26.80
2010,08,16,11,26,26.80
2010,08,16,11,27,26.90
2010,08,16,11,28,26.90
2010,08,16,11,29,26.90
2010,08,16,11,30,26.90
2010,08,16,11,31,26.90
2010,08,16,11,32,27.00
2010,08,16,11,33,27.10
2010,08,16,11,34,27.10
2010,08,16,11,35,27.10
2010,08,16,11,36,27.10
2010,08,16,11,37,27.10
2010,08,16,11,38,27.10
2010,08,16,11,39,27.10
2010,08,16,11,40,27.10
2010,08,16,11,41,27.00
2010,08,16,11,42,26.90
2010,08,16,11,43,26.90
2010,08,16,11,44,26.90
2010,08,16,11,45,27.00
2010,08,16,11,46,27.00
2010,08,16,11,47,27.10
2010,08,16,11,48,27.10
2010,08,16,11,49,27.10
2010,08,16,11,50,27.20
2010,08,16,11,51,27.20
2010,08,16,11,52,27.20
2010,08,16,11,53,27.10
2010,08,16,11,54,27.10
2010,08,16,11,55,27.10
2010,08,16,11,56,27.10
2010,08,16,11,57,27.00
2010,08,16,11,58,27.00
2010,08,16,11,59,27.00
2010,08,16,12,00,27.00
2010,08,16,12,01,26.90
2010,08,16,12,02,26.90
2010,08,16,12,03,26.90
2010,08,16,12,04,26.90
2010,08,16,12,05,26.90
2010,08,16,12,06,26.90
2010,08,16,12,07,26.90
2010,08,16,12,08,26.90
2010,08,16,12,09,26.90
2010,08,16,12,10,26.90
2010,08,16,12,11,27.00
2010,08,16,12,12,27.00
2010,08,16,12,13,27.10
2010,08,16,12,14,27.10
2010,08,16,12,15,27.20
2010,08,16,12,16,27.20
2010,08,16,12,17,27.20
2010,08,16,12,18,27.20
2010,08,16,12,19,27.20
2010,08,16,12,20,27.20
2010,08,16,12,21,27.20
2010,08,16,12,22,27.20
2010,08,16,12,23,27.20
2010,08,16,12,24,27.20
2010,08,16,12,25,27.30
2010,08,16,12,26,27.30
2010,08,16,12,27,27.30
2010,08,16,12,28,27.20
2010,08,16,12,29,27.20
2010,08,16,12,30,27.20
2010,08,16,12,31,27.10
2010,08,16,12,32,27.10
2010,08,16,12,33,27.00
2010,08,16,12,34,27.00
2010,08,16,12,35,26.90
2010,08,16,12,36,26.90
2010,08,16,12,37,26.90
2010,08,16,12,38,26.90
2010,08,16,12,39,26.90
2010,08,16,12,40,26.90
2010,08,16,12,41,26.90
2010,08,16,12,42,26.90
2010,08,16,12,43,26.80
2010,08,16,12,44,26.80
2010,08,16,12,45,26.80
2010,08,16,12,46,26.80
2010,08,16,12,47,26.80
2010,08,16,12,48,26.80
2010,08,16,12,49,26.70
2010,08,16,12,50,26.70
2010,08,16,12,51,26.60
2010,08,16,12,52,26.60
2010,08,16,12,53,26.60
2010,08,16,12,54,26.60
2010,08,16,12,55,26.70
2010,08,16,12,56,26.70
2010,08,16,12,57,26.70
2010,08,16,12,58,26.70
2010,08,16,12,59,26.80
2010,08,16,13,00,26.80
2010,08,16,13,01,26.80
2010,08,16,13,02,26.80
2010,08,16,13,03,26.90
2010,08,16,13,04,26.90
2010,08,16,13,05,26.90
2010,08,16,13,06,27.00
2010,08,16,13,07,27.00
2010,08,16,13,08,27.10
2010,08,16,13,09,27.10
2010,08,16,13,10,27.20
2010,08,16,13,11,27.30
2010,08,16,13,12,27.30
2010,08,16,13,13,27.30
2010,08,16,13,14,27.30
2010,08,16,13,15,27.30
2010,08,16,13,16,27.30
2010,08,16,13,17,27.30
2010,08,16,13,18,27.30
2010,08,16,13,19,27.30
2010,08,16,13,20,27.40
2010,08,16,13,21,27.40
2010,08,16,13,22,27.50
2010,08,16,13,23,27.50
2010,08,16,13,24,27.60
2010,08,16,13,25,27.60
2010,08,16,13,26,27.70
2010,08,16,13,27,27.70
2010,08,16,13,28,27.80
2010,08,16,13,29,27.80
2010,08,16,13,30,27.80
2010,08,16,13,31,27.80
2010,08,16,13,32,27.90
2010,08,16,13,33,27.90
2010,08,16,13,34,27.90
2010,08,16,13,35,27.80
2010,08,16,13,36,27.80
2010,08,16,13,37,27.70
2010,08,16,13,38,27.60
2010,08,16,13,39,27.60
2010,08,16,13,40,27.50
2010,08,16,13,41,27.50
2010,08,16,13,42,27.50
2010,08,16,13,43,27.50
2010,08,16,13,44,27.40
2010,08,16,13,45,27.40
2010,08,16,13,46,27.40
2010,08,16,13,47,27.40
2010,08,16,13,48,27.30
2010,08,16,13,49,27.30
2010,08,16,13,50,27.40
2010,08,16,13,51,27.40
2010,08,16,13,52,27.50
2010,08,16,13,53,27.60
2010,08,16,13,54,27.60
2010,08,16,13,55,27.60
2010,08,16,13,56,27.60
2010,08,16,13,57,27.70
2010,08,16,13,58,27.70
2010,08,16,13,59,27.80
2010,08,16,14,00,27.80
2010,08,16,14,01,27.80
2010,08,16,14,02,27.80
2010,08,16,14,03,27.80
2010,08,16,14,04,27.80
2010,08,16,14,05,27.70
2010,08,16,14,06,27.70
2010,08,16,14,07,27.70
2010,08,16,14,08,27.70
2010,08,16,14,09,27.70
2010,08,16,14,10,27.70
2010,08,16,14,11,27.70
2010,08,16,14,12,27.70
2010,08,16,14,13,27.70
2010,08,16,14,14,27.60
2010,08,16,14,15,27.60
2010,08,16,14,16,27.60
2010,08,16,14,17,27.70
2010,08,16,14,18,27.70
2010,08,16,14,19,27.70
2010,08,16,14,20,27.60
2010,08,16,14,21,27.60
2010,08,16,14,22,27.60
2010,08,16,14,23,27.50
2010,08,16,14,24,27.40
2010,08,16,14,25,27.40
2010,08,16,14,26,27.50
2010,08,16,14,27,27.50
2010,08,16,14,28,27.60
2010,08,16,14,29,27.60
2010,08,16,14,30,27.70
2010,08,16,14,31,27.80
2010,08,16,14,32,27.70
2010,08,16,14,33,27.70
2010,08,16,14,34,27.70
2010,08,16,14,35,27.70
2010,08,16,14,36,27.70
2010,08,16,14,37,27.60
2010,08,16,14,38,27.60
2010,08,16,14,39,27.50
2010,08,16,14,40,27.50
2010,08,16,14,41,27.50
2010,08,16,14,42,27.40
2010,08,16,14,43,27.40
2010,08,16,14,44,27.40
2010,08,16,14,45,27.40
2010,08,16,14,46,27.40
2010,08,16,14,47,27.40
2010,08,16,14,48,27.40
2010,08,16,14,49,27.40
2010,08,16,14,50,27.40
2010,08,16,14,51,27.40
2010,08,16,14,52,27.40
2010,08,16,14,53,27.40
2010,08,16,14,54,27.30
2010,08,16,14,55,27.20
2010,08,16,14,56,27.20
2010,08,16,14,57,27.10
2010,08,16,14,58,27.10
2010,08,16,14,59,27.20
2010,08,16,15,00,27.20
2010,08,16,15,01,27.20
2010,08,16,15,02,27.20
2010,08,16,15,03,27.30
2010,08,16,15,04,27.30
2010,08,16,15,05,27.40
2010,08,16,15,06,27.40
2010,08,16,15,07,27.40
2010,08,16,15,08,27.40
2010,08,16,15,09,27.40
2010,08,16,15,10,27.40
2010,08,16,15,11,27.50
2010,08,16,15,12,27.50
2010,08,16,15,13,27.60
2010,08,16,15,14,27.60
2010,08,16,15,15,27.60
2010,08,16,15,16,27.60
2010,08,16,15,17,27.60
2010,08,16,15,18,27.50
2010,08,16,15,19,27.30
2010,08,16,15,20,27.20
2010,08,16,15,21,27.00
2010,08,16,15,22,26.90
2010,08,16,15,23,26.70
2010,08,16,15,24,26.50
2010,08,16,15,25,26.30
2010,08,16,15,26,26.10
2010,08,16,15,27,26.00
2010,08,16,15,28,25.90
2010,08,16,15,29,25.90
2010,08,16,15,30,26.00
2010,08,16,15,31,26.00
2010,08,16,15,32,26.00
2010,08,16,15,33,26.10
2010,08,16,15,34,26.10
2010,08,16,15,35,26.10
2010,08,16,15,36,26.20
2010,08,16,15,37,26.30
2010,08,16,15,38,26.40
2010,08,16,15,39,26.50
2010,08,16,15,40,26.60
2010,08,16,15,41,26.60
2010,08,16,15,42,26.70
2010,08,16,15,43,26.80
2010,08,16,15,44,26.80
2010,08,16,15,45,26.70
2010,08,16,15,46,26.60
2010,08,16,15,47,26.50
2010,08,16,15,48,26.40
2010,08,16,15,49,26.30
2010,08,16,15,50,26.30
2010,08,16,15,51,26.20
2010,08,16,15,52,26.20
2010,08,16,15,53,26.20
2010,08,16,15,54,26.30
2010,08,16,15,55,26.30
2010,08,16,15,56,26.40
2010,08,16,15,57,26.40
2010,08,16,15,58,26.40
2010,08,16,15,59,26.40
2010,08,16,16,00,26.50
2010,08,16,16,01,26.50
2010,08,16,16,02,26.50
2010,08,16,16,03,26.50
2010,08,16,16,04,26.40
2010,08,16,16,05,26.30
2010,08,16,16,06,26.30
2010,08,16,16,07,26.20
2010,08,16,16,08,26.20
2010,08,16,16,09,26.20
2010,08,16,16,10,26.20
2010,08,16,16,11,26.20
2010,08,16,16,12,26.30
2010,08,16,16,13,26.30
2010,08,16,16,14,26.40
2010,08,16,16,15,26.50
2010,08,16,16,16,26.60
2010,08,16,16,17,26.70
2010,08,16,16,18,26.80
2010,08,16,16,19,26.80
2010,08,16,16,20,26.90
2010,08,16,16,21,26.90
2010,08,16,16,22,26.90
2010,08,16,16,23,26.90
2010,08,16,16,24,26.90
2010,08,16,16,25,26.90
2010,08,16,16,26,26.80
2010,08,16,16,27,26.70
2010,08,16,16,28,26.70
2010,08,16,16,29,26.60
2010,08,16,16,30,26.60
2010,08,16,16,31,26.60
2010,08,16,16,32,26.60
2010,08,16,16,33,26.60
2010,08,16,16,34,26.60
2010,08,16,16,35,26.60
2010,08,16,16,36,26.70
2010,08,16,16,37,26.70
2010,08,16,16,38,26.70
2010,08,16,16,39,26.70
2010,08,16,16,40,26.70
2010,08,16,16,41,26.70
2010,08,16,16,42,26.80
2010,08,16,16,43,26.80
2010,08,16,16,44,26.90
2010,08,16,16,45,26.90
2010,08,16,16,46,27.00
2010,08,16,16,47,27.10
2010,08,16,16,48,27.20
2010,08,16,16,49,27.20
2010,08,16,16,50,27.20
2010,08,16,16,51,27.20
2010,08,16,16,52,27.20
2010,08,16,16,53,27.20
2010,08,16,16,54,27.20
2010,08,16,16,55,27.30
2010,08,16,16,56,27.30
2010,08,16,16,57,27.30
2010,08,16,16,58,27.20
2010,08,16,16,59,27.20
2010,08,16,17,00,27.20
2010,08,16,17,01,27.10
2010,08,16,17,02,27.10
2010,08,16,17,03,27.10
2010,08,16,17,04,27.10
2010,08,16,17,05,27.10
2010,08,16,17,06,27.20
2010,08,16,17,07,27.20
2010,08,16,17,08,27.30
2010,08,16,17,09,27.30
2010,08,16,17,10,27.40
2010,08,16,17,11,27.40
2010,08,16,17,12,27.40
2010,08,16,17,13,27.40
2010,08,16,17,14,27.40
2010,08,16,17,15,27.50
2010,08,16,17,16,27.40
2010,08,16,17,17,27.40
2010,08,16,17,18,27.30
2010,08,16,17,19,27.20